DHK6 EDDH-EPWA

Flight info

Callsign DHK6
Flight time 0h 43m
Altitude 35000
Route RAMAR6C RAMAR DCT PABMI DCT RADEL DCT ALUKA DCT DENKO P851 BIMPA
Aircraft B77L/H-SDE1E2E3FGHIJ2J3J4J5M1RWXY/LB1D1

Departure

Time 2026-04-20 21:09
Airport Hamburg Helmut Schmidt Airport (EDDH)

Arrival

Time 2026-04-20 21:52
Airport Warsaw Chopin Airport (EPWA)
Time Latitude Longitude Altitude Speed Heading
2026-04-20 20:51 53.62843 9.99041 51 ft 0 kts 63°
2026-04-20 21:02 53.62839 9.99026 47 ft 4 kts 73°
2026-04-20 21:03 53.62835 9.98987 44 ft 2 kts 78°
2026-04-20 21:03 53.62830 9.98954 44 ft 4 kts 47°
2026-04-20 21:03 53.62822 9.98941 44 ft 4 kts 346°
2026-04-20 21:03 53.62800 9.98959 45 ft 4 kts 329°
2026-04-20 21:04 53.62788 9.98971 46 ft 0 kts 331°
2026-04-20 21:06 53.62814 9.98946 47 ft 15 kts 327°
2026-04-20 21:06 53.62816 9.98811 49 ft 13 kts 234°
2026-04-20 21:06 53.62757 9.98689 51 ft 13 kts 230°
2026-04-20 21:06 53.62698 9.98569 50 ft 13 kts 230°
2026-04-20 21:07 53.62639 9.98449 50 ft 13 kts 230°
2026-04-20 21:07 53.62576 9.98322 50 ft 20 kts 230°
2026-04-20 21:07 53.62460 9.98072 49 ft 22 kts 242°
2026-04-20 21:07 53.62432 9.97873 48 ft 11 kts 281°
2026-04-20 21:08 53.62490 9.97793 48 ft 11 kts 352°
2026-04-20 21:08 53.62556 9.97855 48 ft 11 kts 46°
2026-04-20 21:08 53.62617 9.97972 50 ft 26 kts 51°
2026-04-20 21:08 53.62933 9.98612 48 ft 116 kts 50°
2026-04-20 21:09 53.63602 9.99974 213 ft 175 kts 50°
2026-04-20 21:09 53.64402 10.01624 984 ft 179 kts 52°
2026-04-20 21:09 53.65126 10.03123 2339 ft 159 kts 56°
2026-04-20 21:09 53.65841 10.04633 2891 ft 178 kts 56°
2026-04-20 21:10 53.66677 10.06406 3171 ft 209 kts 55°
2026-04-20 21:10 53.67629 10.08424 3763 ft 226 kts 54°
2026-04-20 21:10 53.68619 10.10523 4575 ft 235 kts 54°
2026-04-20 21:10 53.69648 10.12708 5513 ft 240 kts 54°
2026-04-20 21:11 53.70684 10.14913 6383 ft 245 kts 54°
2026-04-20 21:11 53.71525 10.17420 7077 ft 249 kts 73°
2026-04-20 21:11 53.71988 10.20270 7872 ft 253 kts 75°
2026-04-20 21:11 53.72456 10.23159 8794 ft 256 kts 75°
2026-04-20 21:12 53.72933 10.26080 9685 ft 260 kts 75°
2026-04-20 21:12 53.73421 10.29050 10256 ft 265 kts 74°
2026-04-20 21:12 53.73918 10.32066 10278 ft 268 kts 74°
2026-04-20 21:12 53.74417 10.35089 10288 ft 267 kts 74°
2026-04-20 21:13 53.74915 10.38104 10290 ft 266 kts 74°
2026-04-20 21:13 53.75411 10.41106 10293 ft 265 kts 74°
2026-04-20 21:13 53.75900 10.44071 10295 ft 265 kts 74°
2026-04-20 21:13 53.76394 10.47066 10292 ft 265 kts 74°
2026-04-20 21:14 53.76897 10.50122 10429 ft 280 kts 74°
2026-04-20 21:14 53.77445 10.53452 10649 ft 307 kts 74°
2026-04-20 21:14 53.78042 10.57084 10881 ft 334 kts 74°
2026-04-20 21:14 53.78676 10.60956 11516 ft 346 kts 74°
2026-04-20 21:15 53.79314 10.64919 12386 ft 349 kts 76°
2026-04-20 21:15 53.79463 10.69047 13152 ft 359 kts 96°
2026-04-20 21:15 53.78798 10.73154 14116 ft 368 kts 112°
2026-04-20 21:15 53.77516 10.76936 15005 ft 373 kts 119°
2026-04-20 21:16 53.76091 10.80646 15834 ft 379 kts 120°
2026-04-20 21:16 53.74645 10.84403 16656 ft 384 kts 119°
2026-04-20 21:16 53.73204 10.88229 17496 ft 389 kts 119°
2026-04-20 21:16 53.71755 10.92124 18318 ft 394 kts 118°
2026-04-20 21:17 53.70278 10.96052 19040 ft 399 kts 120°
2026-04-20 21:17 53.68701 10.99941 19744 ft 404 kts 122°
2026-04-20 21:17 53.67060 11.03843 20445 ft 409 kts 122°
2026-04-20 21:17 53.65397 11.07767 21133 ft 414 kts 122°
2026-04-20 21:18 53.63719 11.11732 21812 ft 418 kts 122°
2026-04-20 21:18 53.62026 11.15754 22494 ft 423 kts 122°
2026-04-20 21:18 53.60317 11.19824 23125 ft 428 kts 122°
2026-04-20 21:18 53.58596 11.23932 23798 ft 432 kts 122°
2026-04-20 21:19 53.56175 11.29708 24561 ft 438 kts 122°
2026-04-20 21:19 53.50647 11.42851 26284 ft 449 kts 122°
2026-04-20 21:19 53.48832 11.47151 26781 ft 454 kts 122°
2026-04-20 21:20 53.45142 11.55875 27762 ft 462 kts 122°
2026-04-20 21:20 53.43298 11.60220 28270 ft 466 kts 123°
2026-04-20 21:20 53.39865 11.68667 29140 ft 471 kts 117°
2026-04-20 21:20 53.33884 11.88073 30829 ft 479 kts 115°
2026-04-20 21:21 53.27739 12.07871 32511 ft 481 kts 115°
2026-04-20 21:21 53.21485 12.27736 34095 ft 484 kts 116°
2026-04-20 21:21 53.16519 12.43408 34964 ft 488 kts 116°
2026-04-20 21:21 53.14935 12.48388 35160 ft 482 kts 116°
2026-04-20 21:22 53.09926 12.64081 35168 ft 491 kts 116°
2026-04-20 21:22 53.00299 12.93921 35274 ft 495 kts 116°
2026-04-20 21:22 52.94916 13.14754 35194 ft 487 kts 100°
2026-04-20 21:22 52.93852 13.36655 35312 ft 473 kts 91°
2026-04-20 21:23 52.93043 13.58535 35289 ft 479 kts 92°
2026-04-20 21:23 52.91155 14.03016 35218 ft 489 kts 92°
2026-04-20 21:24 52.89092 14.47529 35166 ft 473 kts 92°
2026-04-20 21:24 52.88081 14.67901 35187 ft 479 kts 93°
2026-04-20 21:25 52.87518 14.78977 35196 ft 484 kts 93°
2026-04-20 21:25 52.86943 14.90075 35191 ft 484 kts 93°
2026-04-20 21:26 52.86357 15.01170 35189 ft 483 kts 93°
2026-04-20 21:26 52.85762 15.12240 35192 ft 482 kts 93°
2026-04-20 21:27 52.85159 15.23281 35191 ft 481 kts 93°
2026-04-20 21:27 52.84546 15.34317 35192 ft 481 kts 93°
2026-04-20 21:28 52.83924 15.45327 35191 ft 480 kts 93°
2026-04-20 21:28 52.83296 15.56251 35184 ft 480 kts 94°
2026-04-20 21:29 52.82654 15.67252 35181 ft 480 kts 94°
2026-04-20 21:29 52.82005 15.78229 35183 ft 480 kts 94°
2026-04-20 21:30 52.81204 15.89199 35174 ft 481 kts 96°
2026-04-20 21:30 52.80143 16.00121 35190 ft 481 kts 97°
2026-04-20 21:31 52.78941 16.12158 35179 ft 482 kts 97°
2026-04-20 21:31 52.75682 16.45193 35180 ft 483 kts 97°
2026-04-20 21:32 52.71227 16.88959 35175 ft 484 kts 98°
2026-04-20 21:32 52.66614 17.32700 35175 ft 485 kts 98°
2026-04-20 21:33 52.61847 17.76385 35166 ft 485 kts 98°
2026-04-20 21:33 52.58994 18.01819 35165 ft 485 kts 99°
2026-04-20 21:34 52.57742 18.12713 35159 ft 485 kts 99°
2026-04-20 21:34 52.57111 18.18160 34912 ft 488 kts 99°
2026-04-20 21:34 52.56466 18.23713 34071 ft 497 kts 99°
2026-04-20 21:34 52.55817 18.29276 33136 ft 495 kts 99°
2026-04-20 21:35 52.54391 18.41382 31219 ft 460 kts 99°
2026-04-20 21:35 52.51988 18.61626 28872 ft 442 kts 99°
2026-04-20 21:35 52.49653 18.80994 26683 ft 423 kts 99°
2026-04-20 21:35 52.48881 18.87333 26099 ft 415 kts 99°
2026-04-20 21:36 52.48317 18.91946 25624 ft 410 kts 99°
2026-04-20 21:36 52.47757 18.96520 25136 ft 407 kts 99°
2026-04-20 21:36 52.47203 19.01022 24630 ft 405 kts 99°
2026-04-20 21:36 52.46648 19.05530 24143 ft 402 kts 99°
2026-04-20 21:37 52.46094 19.10010 23634 ft 400 kts 99°
2026-04-20 21:37 52.45541 19.14464 23058 ft 398 kts 99°
2026-04-20 21:37 52.44987 19.18891 22548 ft 394 kts 99°
2026-04-20 21:37 52.44417 19.23270 21953 ft 393 kts 100°
2026-04-20 21:38 52.43833 19.27640 21298 ft 393 kts 100°
2026-04-20 21:38 52.43242 19.32027 20635 ft 394 kts 100°
2026-04-20 21:38 52.42648 19.36420 20011 ft 394 kts 100°
2026-04-20 21:38 52.42057 19.40792 19442 ft 393 kts 100°
2026-04-20 21:39 52.41661 19.43720 19078 ft 402 kts 100°
2026-04-20 21:39 52.41050 19.48252 18539 ft 410 kts 100°
2026-04-20 21:39 52.40433 19.52808 17916 ft 408 kts 101°
2026-04-20 21:39 52.39617 19.58800 17082 ft 405 kts 101°
2026-04-20 21:40 52.39004 19.63289 16460 ft 403 kts 101°
2026-04-20 21:40 52.38392 19.67758 15867 ft 401 kts 101°
2026-04-20 21:40 52.37981 19.70756 15459 ft 399 kts 101°
2026-04-20 21:40 52.37381 19.75119 14897 ft 397 kts 101°
2026-04-20 21:41 52.36777 19.79507 14319 ft 394 kts 101°
2026-04-20 21:41 52.36173 19.83869 13741 ft 392 kts 101°
2026-04-20 21:41 52.35574 19.88192 13099 ft 384 kts 101°
2026-04-20 21:41 52.34992 19.92371 12413 ft 372 kts 101°
2026-04-20 21:42 52.34416 19.96504 11767 ft 372 kts 101°
2026-04-20 21:42 52.33842 20.00610 11127 ft 370 kts 101°
2026-04-20 21:42 52.33270 20.04697 10502 ft 367 kts 101°
2026-04-20 21:42 52.32701 20.08741 9857 ft 357 kts 101°
2026-04-20 21:43 52.32164 20.12542 9146 ft 331 kts 101°
2026-04-20 21:43 52.31662 20.16079 8455 ft 309 kts 102°
2026-04-20 21:43 52.31190 20.19412 7776 ft 292 kts 102°
2026-04-20 21:43 52.30746 20.22544 7262 ft 273 kts 102°
2026-04-20 21:44 52.30332 20.25455 7048 ft 259 kts 102°
2026-04-20 21:44 52.29918 20.28371 7004 ft 265 kts 102°
2026-04-20 21:44 52.29506 20.31270 6995 ft 259 kts 102°
2026-04-20 21:44 52.29099 20.34117 6978 ft 256 kts 102°
2026-04-20 21:45 52.28697 20.36930 6719 ft 254 kts 102°
2026-04-20 21:45 52.28290 20.39767 6123 ft 260 kts 102°
2026-04-20 21:45 52.27871 20.42685 5468 ft 267 kts 102°
2026-04-20 21:45 52.27444 20.45652 4867 ft 263 kts 102°
2026-04-20 21:46 52.27036 20.48476 4303 ft 248 kts 102°
2026-04-20 21:46 52.26651 20.51134 3867 ft 232 kts 102°
2026-04-20 21:46 52.26293 20.53608 3466 ft 216 kts 102°
2026-04-20 21:46 52.25956 20.55930 3089 ft 206 kts 102°
2026-04-20 21:47 52.25629 20.58186 3008 ft 205 kts 102°
2026-04-20 21:47 52.25300 20.60462 3010 ft 212 kts 102°
2026-04-20 21:47 52.24957 20.62813 3005 ft 214 kts 102°
2026-04-20 21:47 52.24612 20.65178 2997 ft 214 kts 102°
2026-04-20 21:48 52.24268 20.67527 2981 ft 209 kts 102°
2026-04-20 21:48 52.23938 20.69775 2969 ft 198 kts 102°
2026-04-20 21:48 52.23558 20.71892 2992 ft 196 kts 111°
2026-04-20 21:48 52.23007 20.73913 2985 ft 193 kts 113°
2026-04-20 21:49 52.22442 20.75865 2979 ft 185 kts 113°
2026-04-20 21:49 52.21901 20.77758 3006 ft 186 kts 113°
2026-04-20 21:49 52.21366 20.79616 3015 ft 173 kts 113°
2026-04-20 21:49 52.20900 20.81267 2907 ft 151 kts 112°
2026-04-20 21:50 52.20471 20.82808 2423 ft 145 kts 112°
2026-04-20 21:50 52.20067 20.84265 1970 ft 139 kts 112°
2026-04-20 21:50 52.19666 20.85690 1671 ft 137 kts 112°
2026-04-20 21:50 52.19258 20.87140 1471 ft 144 kts 112°
2026-04-20 21:51 52.18839 20.88637 1239 ft 146 kts 112°
2026-04-20 21:51 52.18420 20.90133 1019 ft 145 kts 112°
2026-04-20 21:51 52.17997 20.91639 822 ft 147 kts 113°
2026-04-20 21:51 52.17572 20.93152 621 ft 147 kts 112°
2026-04-20 21:52 52.17149 20.94666 391 ft 145 kts 112°
2026-04-20 21:52 52.16749 20.96100 348 ft 123 kts 114°
2026-04-20 21:52 52.16479 20.97051 350 ft 50 kts 114°
2026-04-20 21:52 52.16415 20.97278 353 ft 13 kts 114°
2026-04-20 21:53 52.16347 20.97520 348 ft 28 kts 115°
2026-04-20 21:53 52.16266 20.97806 354 ft 28 kts 115°
2026-04-20 21:53 52.16187 20.98090 352 ft 28 kts 114°
2026-04-20 21:53 52.16112 20.98332 351 ft 12 kts 143°
2026-04-20 21:54 52.16030 20.98319 352 ft 12 kts 204°
2026-04-20 21:54 52.15951 20.98262 351 ft 12 kts 205°
2026-04-20 21:54 52.15874 20.98205 354 ft 12 kts 204°
2026-04-20 21:54 52.15796 20.98147 352 ft 12 kts 204°
2026-04-20 21:55 52.15716 20.98089 351 ft 14 kts 204°
2026-04-20 21:55 52.15599 20.98007 354 ft 22 kts 195°
2026-04-20 21:55 52.15485 20.98065 352 ft 6 kts 134°
2026-04-20 21:55 52.15486 20.98081 349 ft 1 kts 83°
2026-04-20 21:56 52.15489 20.98097 353 ft 2 kts 75°
2026-04-20 21:56 52.15493 20.98114 352 ft 2 kts 68°
2026-04-20 21:56 52.15498 20.98131 352 ft 1 kts 62°
2026-04-20 21:56 52.15503 20.98146 350 ft 2 kts 61°
2026-04-20 21:57 52.15509 20.98165 353 ft 2 kts 61°
2026-04-20 21:57 52.15513 20.98175 351 ft 1 kts 61°
2026-04-20 21:57 52.15514 20.98179 354 ft 0 kts 61°